Flag for India

Past Weather in Jalpaiguri, West Bengal, India — Yesterday and Last 2 Weeks

Now
66 °F

Fog.


Feels Like: 66 °F
Forecast: 80 / 72 °F
Wind: No wind

Location: Lucknow / Amausi
Current Time: Oct 24, 2020 at 4:18:36 am
Latest Report: Oct 24, 2020 at 3:30 am
Visibility: 2 mi
Pressure29.71 "Hg
Humidity: 94%
Dew Point: 64 °F
Location of JalpaiguriLocation

Past Weather in Jalpaiguri — Graph

°F

Jalpaiguri Temperature Yesterday

Maximum temperature yesterday: 90 °F (at 11:30 am)
Minimum temperature yesterday: 70 °F (at 4:30 am)
Average temperature yesterday: 78 °F

High & Low Weather Summary for the Past Weeks

 TemperatureHumidityPressure
High97 °F (Oct 16, 1:30 pm)94% (Oct 9, 6:30 am)29.86 "Hg (Oct 9, 6:30 am)
Low66 °F (Oct 21, 6:30 am)32% (Oct 17, 4:30 pm)29.59 "Hg (Oct 12, 3:00 pm)
Average82 °F73%29.73 "Hg
* Reported Oct 9 2:30 am — Oct 24 3:00 am, Jalpaiguri. Weather by CustomWeather, © 2020

Note: Actual official high and low records may vary slightly from our data, if they occured in-between our weather recording intervals... More about our weather records

Jalpaiguri Weather History for the Previous 24 Hours

Scroll right to see more
 ConditionsComfort  
Time TempWeatherWind HumidityBarometerVisibility
3:00 am
Sat, Oct 24
68 °FFog.No wind88%29.71 "Hg2 mi
2:30 am70 °FFog.No wind88%29.71 "Hg2 mi
2:00 am70 °FFog.No wind88%29.71 "Hg2 mi
1:30 am72 °FFog.No wind83%29.71 "Hg2 mi
12:30 am72 °FFog.No wind83%29.74 "Hg2 mi
11:30 pm
Fri, Oct 23
73 °FFog.No wind89%29.74 "Hg2 mi
11:00 pm73 °FFog.No wind83%29.74 "Hg2 mi
10:30 pm73 °FFog.No wind89%29.74 "Hg2 mi
10:00 pm75 °FFog.No wind83%29.74 "Hg2 mi
9:30 pm75 °FFog.No wind83%29.74 "Hg2 mi
9:00 pm75 °FFog.No wind83%29.74 "Hg2 mi
8:30 pm75 °FFog.No wind83%29.71 "Hg2 mi
8:00 pm77 °FHaze.No wind83%29.71 "Hg2 mi
7:30 pm79 °FHaze.No wind79%29.71 "Hg2 mi
7:00 pm79 °FHaze.No wind79%29.71 "Hg2 mi
6:30 pm81 °FHaze.No wind70%29.68 "Hg2 mi
5:30 pm88 °FHaze.3 mph55%29.65 "Hg2 mi
5:00 pm88 °FHaze.3 mph52%29.65 "Hg2 mi
4:30 pm90 °FHaze.6 mph49%29.65 "Hg2 mi
4:00 pm90 °FHaze.7 mph49%29.65 "Hg2 mi
3:30 pm90 °FHaze.8 mph49%29.65 "Hg2 mi
3:00 pm90 °FHaze.8 mph49%29.65 "Hg2 mi
2:00 pm90 °FHaze.8 mph55%29.68 "Hg2 mi
1:30 pm90 °FHaze.6 mph55%29.68 "Hg2 mi
12:30 pm88 °FHaze.5 mph59%29.71 "Hg2 mi
12:00 pm88 °FHaze.3 mph55%29.74 "Hg2 mi
11:30 am90 °FHaze.5 mph49%29.74 "Hg2 mi
11:00 am88 °FHaze.3 mph55%29.74 "Hg2 mi
10:30 am86 °FHaze.No wind62%29.77 "Hg2 mi
10:00 am84 °FHaze.No wind66%29.77 "Hg2 mi
9:30 am82 °FFog.No wind74%29.77 "Hg1 mi
9:00 am79 °FFog.No wind84%29.77 "Hg1 mi
8:30 am75 °FFog.No wind78%29.74 "Hg1 mi
8:00 am73 °FFog.No wind78%29.74 "Hg1 mi
7:30 am70 °FFog.No wind88%29.74 "Hg1 mi
7:00 am70 °FFog.No wind88%29.74 "Hg1 mi
6:30 am70 °FFog.No wind88%29.71 "Hg1 mi
6:00 am70 °FFog.No wind88%29.71 "Hg1 mi
5:30 am70 °FFog.No wind88%29.71 "Hg2 mi
5:00 am70 °FFog.No wind88%29.71 "Hg2 mi
4:30 am70 °FFog.No wind88%29.68 "Hg2 mi
4:00 am72 °FFog.No wind94%29.68 "Hg2 mi
Weather by CustomWeather, © 2020

See weather overview